{"data":{"norad_id":48325,"epoch":"2026-09-19T17:46:10.503840Z","epoch_age_seconds":99360,"freshness":"FRESH","line1":"1 48325U 21036BB  26262.74039935 -.00000009  00000+0  11501-4 0  9993","line2":"2 48325  53.1603 278.0930 0001687  73.4696 286.6491 15.31699998297776","mean_motion":15.31699998,"eccentricity":0.0001687,"inclination_deg":53.1603,"raan_deg":278.093,"arg_perigee_deg":73.4696,"mean_anomaly_deg":286.6491,"bstar":1.1501e-5,"rev_number":29777,"period_min":94.013188083846,"perigee_km":469.58459563744,"apogee_km":471.89540673764,"semimajor_km":6848.8770011875,"source":"CELESTRAK","updated_at":"2026-09-20T09:00:38.936413Z"}}